This demonstration page uses our WeatherBlox Daily Observations layout. Learn more.

Hourly Observations for March 7, 2017

Temp ( °F °C ) Dew Point ( °F °C ) Humidity (%) Winds ( mph kmh ) Pressure ( in mb ) Visibility ( mi km ) Precip ( " mm )
12:15 am 00:15 Clear 31 -0.3 19 -7.1 61 61 WSW 9 15 30 1016 10 16.0934 0 0
12:35 am 00:35 Clear 31 -0.5 19 -7.3 60 60 W 15 24 30 1016 10 16.0934 0 0
12:55 am 00:55 Clear 31 -0.7 18 -7.6 60 60 W 14 22 30 1016 10 16.0934 0 0
1:15 am 01:15 Clear 31 -0.5 18 -7.7 59 59 WSW 13 20 30 1016 10 16.0934 0 0
1:35 am 01:35 Clear 32 0 18 -7.9 56 56 W 14 22 30 1016 10 16.0934 0 0
1:55 am 01:55 Clear 31 -0.4 18 -8 57 57 W 13 20 30 1016 10 16.0934 0 0
2:15 am 02:15 Clear 30 -0.9 17 -8.1 59 59 W 13 20 30 1016 10 16.0934 0 0
2:35 am 02:35 Clear 28 -2 17 -8.1 63 63 W 12 19 30.03 1017 10 16.0934 0 0
2:55 am 02:55 Clear 28 -2.1 17 -8.1 64 64 W 12 19 30.03 1017 10 16.0934 0 0
3:15 am 03:15 Clear 28 -2.1 17 -8.1 64 64 W 12 19 30.03 1017 10 16.0934 0 0
3:35 am 03:35 Clear 29 -1.8 17 -8.3 62 62 WSW 13 20 30.03 1017 10 16.0934 0 0
3:55 am 03:55 Clear 29 -1.7 17 -8.5 60 60 WSW 10 17 30.03 1017 10 16.0934 0 0
4:15 am 04:15 Clear 28 -2.3 17 -8.6 62 62 WSW 10 17 30.03 1017 10 16.0934 0 0
4:35 am 04:35 Clear 28 -2.3 16 -9.1 60 60 WSW 15 24 30.06 1018 10 16.0934 0 0
4:55 am 04:55 Partly Cloudy 28 -2.5 15 -9.5 59 59 W 14 22 30.06 1018 10 16.0934 0 0
5:15 am 05:15 Partly Cloudy 28 -2.5 14 -10 57 57 W 14 22 30.06 1018 10 16.0934 0 0
5:35 am 05:35 Clear 27 -2.6 13 -10.6 55 55 W 15 24 30.06 1018 10 16.0934 0 0
5:55 am 05:55 Clear 27 -2.6 12 -11.1 52 52 W 17 28 30.09 1019 10 16.0934 0 0
6:15 am 06:15 Clear 27 -2.6 11 -11.7 50 50 WSW 14 22 30.09 1019 10 16.0934 0 0
6:35 am 06:35 Clear 28 -2.5 10 -12.4 47 47 WSW 13 20 30.09 1019 10 16.0934 0 0
6:55 am 06:55 Clear 28 -2.2 9 -12.8 44 44 WSW 15 24 30.09 1019 10 16.0934 0 0
7:15 am 07:15 Sunny 28 -2 9 -13 43 43 WSW 15 24 30.09 1019 10 16.0934 0 0
7:35 am 07:35 Sunny 29 -1.6 8 -13.3 41 41 WSW 15 24 30.09 1019 10 16.0934 0 0
7:55 am 07:55 Sunny 30 -0.9 8 -13.5 38 38 WSW 17 28 30.12 1020 10 16.0934 0 0
8:15 am 08:15 Sunny 32 0 8 -13.5 36 36 WSW 15 24 30.09 1019 10 16.0934 0 0
8:35 am 08:35 Sunny 33 0.5 8 -13.4 35 35 WSW 15 24 30.09 1019 10 16.0934 0 0
8:55 am 08:55 Sunny 35 1.5 9 -12.9 34 34 W 21 33 30.09 1019 10 16.0934 0 0
9:15 am 09:15 Sunny 37 2.7 10 -12.5 32 32 W 17 28 30.12 1020 10 16.0934 0 0
9:35 am 09:35 Sunny 40 4.4 10 -12.2 29 29 W 20 31 30.09 1019 10 16.0934 0 0
9:55 am 09:55 Sunny 42 5.7 10 -12.3 26 26 W 21 33 30.09 1019 10 16.0934 0 0
10:15 am 10:15 Sunny 44 6.8 9 -12.9 23 23 W 24 39 30.03 1017 10 16.0934 0 0
10:35 am 10:35 Sunny 46 8 9 -12.9 21 21 W 26 43 30.06 1018 10 16.0934 0 0
10:55 am 10:55 Mostly Cloudy 48 8.9 9 -12.9 20 20 W 18 30 30.06 1018 10 16.0934 0 0
11:15 am 11:15 Mostly Cloudy 49 9.4 10 -12.4 20 20 W 24 39 30 1016 10 16.0934 0 0
11:35 am 11:35 Mostly Cloudy 49 9.6 8 -13.3 19 19 WNW 20 31 30 1016 10 16.0934 0 0
11:55 am 11:55 Cloudy 50 10 6 -14.3 17 17 W 25 41 30 1016 10 16.0934 0 0
12:15 pm 12:15 Mostly Cloudy 51 10.4 8 -13.5 17 17 WNW 26 43 30 1016 10 16.0934 0 0
12:35 pm 12:35 Partly Cloudy 50 10.2 8 -13.2 18 18 WNW 29 46 30 1016 10 16.0934 0 0
12:55 pm 12:55 Partly Cloudy 51 10.5 6 -14.2 16 16 WNW 24 39 30 1016 10 16.0934 0 0
1:15 pm 13:15 Mostly Cloudy 50 10.2 5 -15 15 15 WNW 21 33 30 1016 10 16.0934 0 0
1:35 pm 13:35 Mostly Cloudy 54 12.1 5 -15 14 14 W 32 52 30 1016 10 16.0934 0 0
1:55 pm 13:55 Mostly Cloudy 54 12 4 -15.4 13 13 W 31 50 30 1016 10 16.0934 0 0
2:15 pm 14:15 Partly Cloudy 52 11.1 6 -14.6 15 15 NW 25 41 30 1016 10 16.0934 0 0
2:35 pm 14:35 Partly Cloudy 54 12.3 3 -16 12 12 W 32 52 30 1016 10 16.0934 0 0
2:55 pm 14:55 Partly Cloudy 52 11.2 2 -16.5 13 13 WNW 28 44 30 1016 10 16.0934 0 0
3:15 pm 15:15 Partly Cloudy 54 12.1 1 -17.2 11 11 W 30 48 30 1016 10 16.0934 0 0
3:35 pm 15:35 Partly Cloudy 53 11.9 1 -17.5 11 11 WNW 29 46 30.03 1017 10 16.0934 0 0
3:55 pm 15:55 Sunny 53 11.5 0 -17.9 11 11 WNW 31 50 30.03 1017 10 16.0934 0 0
4:15 pm 16:15 Sunny 53 11.8 2 -16.5 12 12 WNW 28 44 30.03 1017 10 16.0934 0 0
4:35 pm 16:35 Sunny 53 11.5 2 -16.4 13 13 WNW 28 44 30.03 1017 10 16.0934 0 0
4:55 pm 16:55 Sunny 52 11 3 -16.3 13 13 WNW 26 43 30.06 1018 10 16.0934 0 0
5:15 pm 17:15 Sunny 51 10.7 3 -16.2 14 14 WNW 24 39 30.06 1018 10 16.0934 0 0
5:35 pm 17:35 Sunny 51 10.5 3 -15.9 14 14 WNW 20 31 30.06 1018 10 16.0934 0 0
5:55 pm 17:55 Sunny 50 10.1 4 -15.6 15 15 WNW 14 22 30.06 1018 10 16.0934 0 0
6:15 pm 18:15 Sunny 49 9.4 4 -15.7 15 15 W 14 22 30.09 1019 10 16.0934 0 0
6:35 pm 18:35 Sunny 47 8.6 4 -15.8 16 16 WNW 9 15 30.09 1019 10 16.0934 0 0
6:55 pm 18:55 Clear 45 7.1 4 -15.3 19 19 W 9 15 30.12 1020 10 16.0934 0 0
7:15 pm 19:15 Clear 43 6 5 -15 21 21 W 8 13 30.15 1021 10 16.0934 0 0
7:35 pm 19:35 Clear 41 4.8 5 -15.1 22 22 W 8 13 30.15 1021 10 16.0934 0 0
7:55 pm 19:55 Clear 39 4.1 5 -14.8 24 24 WNW 6 9 30.15 1021 10 16.0934 0 0
8:15 pm 20:15 Clear 38 3.1 5 -15.2 25 25 W 7 11 30.18 1022 10 16.0934 0 0
8:35 pm 20:35 Clear 37 2.5 5 -14.8 27 27 WNW 5 7 30.21 1023 10 16.0934 0 0
8:55 pm 20:55 Clear 36 2.1 5 -14.9 27 27 NW 6 9 30.21 1023 10 16.0934 0 0
9:15 pm 21:15 Clear 36 2.4 6 -14.7 27 27 NW 7 11 30.21 1023 10 16.0934 0 0
9:35 pm 21:35 Clear 34 1.1 6 -14.5 30 30 SW 5 7 30.21 1023 10 16.0934 0 0
9:55 pm 21:55 Clear 36 2.2 6 -14.4 28 28 W 6 9 30.21 1023 10 16.0934 0 0
10:15 pm 22:15 Clear 34 1.2 6 -14.5 30 30 SW 7 11 30.21 1023 10 16.0934 0 0
10:35 pm 22:35 Clear 34 1.2 7 -14 32 32 WSW 5 7 30.21 1023 10 16.0934 0 0
10:55 pm 22:55 Clear 33 0.8 7 -14 32 32 SW 6 9 30.21 1023 10 16.0934 0 0
11:15 pm 23:15 Clear 33 0.6 7 -13.8 33 33 WSW 5 7 30.24 1024 10 16.0934 0 0
11:35 pm 23:35 Clear 34 1 7 -13.8 32 32 SSW 5 7 30.21 1023 10 16.0934 0 0
11:55 pm 23:55 Clear 31 -0.3 7 -13.7 36 36 WSW 5 7 30.24 1024 10 16.0934 0 0

Powered by AerisWeather